| time (UTC) | temp F | wind direction | speed MPH | gust MPH | rain 1hr in | rain 24hr in | rain mn in | humidity % | barometer mb |
| 20260906213107 | 57 | 108 | 1.0 | 3.0 | 0.01 | 0.19 | 0.19 | 94 | 1016.7 |
| 20260906211601 | 57 | 156 | 1.0 | 3.0 | 0.01 | 0.19 | 0.19 | 94 | 1016.6 |
| 20260906204608 | 57 | 0 | 0.0 | 2.0 | 0.00 | 0.18 | 0.18 | 95 | 1016.5 |
| 20260906203100 | 57 | 200 | 0.0 | 2.0 | 0.00 | 0.18 | 0.18 | 95 | 1016.4 |
| 20260906201607 | 57 | 139 | 0.0 | 1.0 | 0.00 | 0.18 | 0.18 | 95 | 1016.4 |
| 20260906194605 | 57 | 0 | 0.0 | 2.0 | 0.01 | 0.18 | 0.18 | 95 | 1016.3 |
| 20260906193100 | 57 | 0 | 0.0 | 1.0 | 0.01 | 0.18 | 0.18 | 95 | 1016.1 |
| 20260906191556 | 57 | 0 | 0.0 | 2.0 | 0.03 | 0.18 | 0.18 | 95 | 1016.1 |
| 20260906184600 | 56 | 0 | 0.0 | 2.0 | 0.05 | 0.17 | 0.17 | 95 | 1016.3 |
| 20260906183058 | 56 | 0 | 0.0 | 1.0 | 0.08 | 0.17 | 0.17 | 95 | 1016.3 |
| 20260906181607 | 56 | 0 | 0.0 | 0.0 | 0.07 | 0.15 | 0.15 | 95 | 1016.4 |
| 20260906180109 | 55 | 0 | 0.0 | 1.0 | 0.05 | 0.13 | 0.13 | 95 | 1016.3 |
| 20260906174559 | 56 | 0 | 0.0 | 1.0 | 0.04 | 0.12 | 0.12 | 95 | 1016.2 |
| 20260906173101 | 56 | 0 | 0.0 | 2.0 | 0.01 | 0.09 | 0.09 | 94 | 1016.0 |
| 20260906171606 | 56 | 0 | 0.0 | 2.0 | 0.01 | 0.08 | 0.08 | 95 | 1016.0 |
| 20260906170110 | 56 | 0 | 0.0 | 2.0 | 0.01 | 0.08 | 0.08 | 94 | 1015.9 |
| 20260906164607 | 56 | 0 | 0.0 | 2.0 | 0.01 | 0.08 | 0.08 | 95 | 1016.0 |
| 20260906163110 | 55 | 0 | 0.0 | 0.0 | 0.02 | 0.08 | 0.08 | 95 | 1015.9 |
| 20260906161602 | 55 | 0 | 0.0 | 0.0 | 0.03 | 0.07 | 0.07 | 95 | 1015.7 |
| 20260906160104 | 55 | 0 | 0.0 | 0.0 | 0.04 | 0.07 | 0.07 | 95 | 1015.7 |
| 20260906154605 | 55 | 0 | 0.0 | 0.0 | 0.04 | 0.07 | 0.07 | 95 | 1015.7 |
| 20260906153100 | 55 | 0 | 0.0 | 0.0 | 0.04 | 0.06 | 0.06 | 94 | 1015.6 |
| 20260906151601 | 54 | 0 | 0.0 | 2.0 | 0.03 | 0.04 | 0.04 | 94 | 1015.6 |
| 20260906150100 | 54 | 0 | 0.0 | 0.0 | 0.02 | 0.03 | 0.03 | 94 | 1015.5 |
| 20260906144602 | 54 | 0 | 0.0 | 1.0 | 0.03 | 0.03 | 0.03 | 93 | 1015.3 |
| 20260906143114 | 54 | 0 | 0.0 | 0.0 | 0.02 | 0.02 | 0.02 | 93 | 1015.2 |
| 20260906141556 | 55 | 0 | 0.0 | 1.0 | 0.01 | 0.01 | 0.01 | 92 | 1015.1 |
| 20260906140059 | 55 | 0 | 0.0 | 1.0 | 0.01 | 0.01 | 0.01 | 91 | 1015.0 |
| 20260906134601 | 55 | 0 | 0.0 | 1.0 | 0.00 | 0.00 | 0.00 | 90 | 1014.8 |
| 20260906133105 | 55 | 0 | 0.0 | 0.0 | 0.00 | 0.00 | 0.00 | 90 | 1014.5 |
| 20260906131606 | 55 | 0 | 0.0 | 0.0 | 0.00 | 0.00 | 0.00 | 89 | 1014.3 |
| 20260906130104 | 55 | 0 | 0.0 | 1.0 | 0.00 | 0.00 | 0.00 | 88 | 1014.5 |
| 20260906124603 | 55 | 0 | 0.0 | 1.0 | 0.00 | 0.00 | 0.00 | 89 | 1014.5 |
| 20260906123059 | 55 | 0 | 0.0 | 2.0 | 0.00 | 0.00 | 0.00 | 90 | 1014.6 |
| 20260906121600 | 55 | 0 | 0.0 | 1.0 | 0.00 | 0.00 | 0.00 | 90 | 1014.6 |
| 20260906120114 | 55 | 31 | 0.0 | 1.0 | 0.00 | 0.00 | 0.00 | 90 | 1014.7 |
| 20260906114558 | 56 | 0 | 0.0 | 2.0 | 0.00 | 0.00 | 0.00 | 89 | 1014.7 |
| 20260906113102 | 56 | 0 | 0.0 | 4.0 | 0.00 | 0.00 | 0.00 | 88 | 1014.8 |
| 20260906111626 | 56 | 0 | 0.0 | 1.0 | 0.00 | 0.00 | 0.00 | 87 | 1014.7 |
| 20260906104558 | 57 | 0 | 0.0 | 6.0 | 0.00 | 0.00 | 0.00 | 87 | 1014.6 |
| 20260906103102 | 57 | 307 | 0.0 | 3.0 | 0.00 | 0.00 | 0.00 | 85 | 1014.5 |
| 20260906101604 | 57 | 11 | 0.0 | 3.0 | 0.00 | 0.00 | 0.00 | 85 | 1014.5 |
| 20260906100103 | 57 | 82 | 0.0 | 5.0 | 0.00 | 0.00 | 0.00 | 84 | 1014.3 |
| 20260906094557 | 57 | 0 | 0.0 | 4.0 | 0.00 | 0.00 | 0.00 | 85 | 1014.4 |
| 20260906093100 | 57 | 0 | 0.0 | 3.0 | 0.00 | 0.00 | 0.00 | 85 | 1014.5 |
| 20260906091610 | 57 | 0 | 0.0 | 3.0 | 0.00 | 0.00 | 0.00 | 84 | 1014.5 |
| 20260906084605 | 58 | 167 | 0.0 | 3.0 | 0.00 | 0.00 | 0.00 | 82 | 1014.3 |
| 20260906083101 | 58 | 44 | 0.0 | 2.0 | 0.00 | 0.00 | 0.00 | 81 | 1014.5 |
| 20260906081603 | 58 | 5 | 0.0 | 3.0 | 0.00 | 0.00 | 0.00 | 80 | 1014.3 |
| 20260906080109 | 58 | 0 | 0.0 | 1.0 | 0.00 | 0.00 | 0.00 | 80 | 1014.5 |
| 20260906074604 | 58 | 0 | 0.0 | 1.0 | 0.00 | 0.00 | 0.00 | 80 | 1014.5 |
| 20260906073106 | 59 | 0 | 0.0 | 2.0 | 0.00 | 0.00 | 0.00 | 80 | 1014.7 |
| 20260906071604 | 59 | 0 | 0.0 | 3.0 | 0.00 | 0.00 | 0.00 | 79 | 1014.7 |
| 20260906070058 | 59 | 0 | 0.0 | 2.0 | 0.00 | 0.00 | 0.00 | 80 | 1014.7 |
| 20260906064559 | 59 | 0 | 0.0 | 9.0 | 0.00 | 0.00 | 0.00 | 78 | 1014.7 |
| 20260906063102 | 59 | 22 | 0.0 | 3.0 | 0.00 | 0.00 | 0.00 | 78 | 1014.6 |
| 20260906061601 | 59 | 38 | 0.0 | 11.0 | 0.00 | 0.00 | 0.00 | 77 | 1014.5 |
| 20260906060104 | 60 | 0 | 1.0 | 8.0 | 0.00 | 0.00 | 0.00 | 77 | 1014.7 |
| 20260906054602 | 60 | 325 | 0.0 | 5.0 | 0.00 | 0.00 | 0.00 | 76 | 1015.0 |
| 20260906053058 | 60 | 43 | 0.0 | 3.0 | 0.00 | 0.00 | 0.00 | 75 | 1015.0 |
| 20260906051609 | 60 | 36 | 0.0 | 3.0 | 0.00 | 0.00 | 0.00 | 75 | 1015.0 |
| 20260906044600 | 60 | 0 | 0.0 | 2.0 | 0.00 | 0.00 | 0.00 | 74 | 1015.1 |
| 20260906043056 | 60 | 10 | 0.0 | 2.0 | 0.00 | 0.00 | 0.00 | 73 | 1015.3 |
| 20260906041602 | 59 | 0 | 0.0 | 3.0 | 0.00 | 0.00 | 0.00 | 72 | 1015.4 |
| 20260906040054 | 59 | 0 | 0.0 | 2.0 | 0.00 | 0.00 | 0.00 | 72 | 1015.3 |
| 20260906034559 | 59 | 0 | 0.0 | 2.0 | 0.00 | 0.00 | 0.00 | 72 | 1015.2 |
| 20260906033102 | 60 | 0 | 0.0 | 1.0 | 0.00 | 0.00 | 0.00 | 72 | 1015.0 |
| 20260906031600 | 60 | 0 | 0.0 | 2.0 | 0.00 | 0.00 | 0.00 | 72 | 1014.8 |
| 20260906030116 | 61 | 0 | 0.0 | 1.0 | 0.00 | 0.00 | 0.00 | 72 | 1014.7 |
| 20260906024624 | 61 | 0 | 0.0 | 1.0 | 0.00 | 0.00 | 0.00 | 71 | 1014.8 |
| 20260906023059 | 62 | 0 | 0.0 | 1.0 | 0.00 | 0.00 | 0.00 | 70 | 1014.8 |
| 20260906021600 | 62 | 0 | 0.0 | 2.0 | 0.00 | 0.00 | 0.00 | 69 | 1014.8 |
| 20260906020103 | 63 | 34 | 0.0 | 0.0 | 0.00 | 0.00 | 0.00 | 67 | 1015.0 |
| 20260906014608 | 64 | 0 | 0.0 | 2.0 | 0.00 | 0.00 | 0.00 | 64 | 1015.1 |
| 20260906013058 | 63 | 0 | 0.0 | 0.0 | 0.00 | 0.00 | 0.00 | 66 | 1015.1 |
| 20260906011556 | 63 | 0 | 0.0 | 0.0 | 0.00 | 0.00 | 0.00 | 69 | 1015.0 |
| 20260906010119 | 64 | 0 | 0.0 | 0.0 | 0.00 | 0.00 | 0.00 | 68 | 1015.0 |
| 20260906004607 | 65 | 0 | 0.0 | 1.0 | 0.00 | 0.00 | 0.00 | 64 | 1015.0 |
| 20260906003118 | 66 | 294 | 0.0 | 2.0 | 0.00 | 0.00 | 0.00 | 60 | 1015.0 |
| 20260906001559 | 66 | 323 | 0.0 | 2.0 | 0.00 | 0.00 | 0.00 | 63 | 1015.0 |
| 20260906000106 | 67 | 181 | 0.0 | 3.0 | 0.00 | 0.00 | 0.00 | 60 | 1015.0 |
| 20260905234608 | 68 | 110 | 0.0 | 3.0 | 0.00 | 0.00 | 0.00 | 62 | 1014.8 |
| 20260905233101 | 68 | 119 | 0.0 | 3.0 | 0.00 | 0.00 | 0.00 | 60 | 1014.9 |
| 20260905231601 | 67 | 0 | 0.0 | 3.0 | 0.00 | 0.00 | 0.00 | 60 | 1015.1 |
| 20260905230100 | 66 | 0 | 1.0 | 3.0 | 0.00 | 0.00 | 0.00 | 60 | 1015.2 |
| 20260905224602 | 66 | 151 | 1.0 | 3.0 | 0.00 | 0.00 | 0.00 | 64 | 1015.4 |
| 20260905223059 | 65 | 61 | 0.0 | 2.0 | 0.00 | 0.00 | 0.00 | 66 | 1015.5 |
| 20260905221602 | 62 | 0 | 0.0 | 0.0 | 0.00 | 0.00 | 0.00 | 76 | 1015.8 |